TimeEDT,TemperatureF,Dew PointF,Humidity,Sea Level PressureIn,VisibilityMPH,Wind Direction,Wind SpeedMPH,Gust SpeedMPH,PrecipitationIn,Events,Conditions,WindDirDegrees,DateUTC
12:53 AM,60.1,59.0,96,30.06,10.0,South,6.9,-,N/A,,Partly Cloudy,190,2013-09-21 04:53:00
1:53 AM,60.1,59.0,96,30.06,10.0,South,5.8,-,0.01,,Clear,180,2013-09-21 05:53:00
2:53 AM,61.0,60.1,97,30.05,10.0,South,6.9,-,N/A,,Clear,170,2013-09-21 06:53:00
3:53 AM,61.0,59.0,93,30.04,10.0,SSE,9.2,-,N/A,,Clear,150,2013-09-21 07:53:00
4:53 AM,60.1,59.0,96,30.05,10.0,SE,6.9,-,N/A,,Clear,140,2013-09-21 08:53:00
5:53 AM,61.0,60.1,97,30.04,10.0,SE,6.9,-,N/A,,Mostly Cloudy,140,2013-09-21 09:53:00
6:53 AM,61.0,60.1,97,30.04,8.0,SE,9.2,-,N/A,,Scattered Clouds,140,2013-09-21 10:53:00
7:53 AM,63.0,61.0,93,30.03,10.0,SE,10.4,-,N/A,,Clear,140,2013-09-21 11:53:00
8:53 AM,64.0,61.0,90,30.03,10.0,SE,12.7,-,N/A,,Clear,140,2013-09-21 12:53:00
9:53 AM,64.9,61.0,87,30.03,10.0,SSE,11.5,-,N/A,,Clear,150,2013-09-21 13:53:00
10:53 AM,66.9,62.1,84,30.01,10.0,SSE,11.5,-,N/A,,Clear,150,2013-09-21 14:53:00
11:53 AM,68.0,62.1,81,29.98,10.0,SSE,11.5,-,N/A,,Partly Cloudy,160,2013-09-21 15:53:00
12:53 PM,71.1,62.1,73,29.96,10.0,SSE,10.4,-,N/A,,Clear,160,2013-09-21 16:53:00
1:53 PM,71.1,63.0,75,29.94,10.0,SSE,12.7,-,N/A,,Clear,150,2013-09-21 17:53:00
2:53 PM,70.0,63.0,78,29.92,10.0,SSE,11.5,-,N/A,,Clear,160,2013-09-21 18:53:00
3:53 PM,71.1,63.0,75,29.91,10.0,SSE,12.7,-,N/A,,Partly Cloudy,160,2013-09-21 19:53:00
4:53 PM,69.1,63.0,81,29.90,10.0,SSE,11.5,-,N/A,,Clear,150,2013-09-21 20:53:00
5:53 PM,66.9,62.1,84,29.88,10.0,SE,13.8,-,N/A,,Scattered Clouds,140,2013-09-21 21:53:00
6:53 PM,66.0,62.1,87,29.87,10.0,SSE,13.8,-,N/A,,Mostly Cloudy,150,2013-09-21 22:53:00
7:53 PM,66.0,61.0,84,29.87,10.0,SSE,15.0,-,N/A,,Overcast,150,2013-09-21 23:53:00
8:53 PM,66.0,62.1,87,29.86,10.0,SSE,13.8,-,N/A,,Overcast,160,2013-09-22 00:53:00
9:53 PM,66.0,63.0,90,29.85,10.0,SSE,12.7,-,N/A,,Clear,160,2013-09-22 01:53:00
10:53 PM,66.0,64.0,93,29.83,10.0,SSE,13.8,-,N/A,,Overcast,160,2013-09-22 02:53:00
11:53 PM,66.9,64.9,93,29.81,10.0,SSE,12.7,-,N/A,,Overcast,160,2013-09-22 03:53:00